Погода в Фэнчэне

Китай     40°27′09″N   124°04′33″E
темп.,
°C
ветер,
м/с
пор.,
м/с
влажн.,
%
обл.,
%
осадки,
мм/ч
давл.,
гПа
погр.,
м
10 мая, пн
пн1023:00+11с1142100 0.0 101110
02:00+11с1143100 0.0 101110
05:00+9св115245 0.0 101210
08:00+15ю244793 0.0 1013489
11:00+19ююз33390 0.0 10131532
14:00+20юз343966 0.0 10122376
17:00+17юз456034 0.0 1012349
20:00+11юз22753 0.0 101520
11 мая, вт
вт1123:00+9с00800 0.0 101610
02:00+8с11840 0.0 101610
05:00+8с21880 0.0 101611
08:00+15всв22640 0.0 1016335
11:00+20ююв34455 0.0 10141272
14:00+23ю453673 0.0 10121942
17:00+19ю474816 0.0 1012721
20:00+13ююз2260100 0.0 101215
12 мая, ср
ср1223:00+11ююз22686 0.0 101319
02:00+12ююв2266100 0.1 101364
05:00+11ююв2388100 1.1 1014162
08:00+11юв2293100 2.1 1014212
11:00+12ююв2388100 0.5 1014370
14:00+13юв128293 0.6 1013408
17:00+14св118160 0.0 1013260
20:00+11с229213 0.0 101415
13 мая, чт
чт1323:00+10ссв229418 0.0 101517
02:00+9с22955 0.0 101512
05:00+9ссв229590 0.0 101537
08:00+15всв117682 0.0 1014272
11:00+20в226158 0.0 1013733
14:00+24ю245174 0.0 10101420
17:00+22ююз4561100 0.0 1010719
20:00+15ю22830 0.0 101121
14 мая, пт
пт1423:00+13ю2287100 0.0 101115
02:00+12юв11902 0.0 101110
05:00+12вюв11920 0.0 101110
08:00+18ю36704 0.0 1011566
11:00+23ю69577 0.0 10091200
14:00+24ююз57536 0.0 10071149
17:00+22ю466257 0.0 1006821
20:00+16ю227696 0.0 100821